This is the latest recevied weather packets stored in our database for station/object DL5TW-13. If no packets are shown the sender has not sent any weather packets the latest 10 day(s).
| Time | Temp. | Humidity | Pressure | Rain* | Wind** | Luminosity | Snow |
|---|---|---|---|---|---|---|---|
| 1777883902 | 22.22° C | 45% | 1009.4 hPa | 0 mm | - | - | - |
| 1777883602 | 22.22° C | 45% | 1009.5 hPa | 0 mm | - | - | - |
| 1777883302 | 21.67° C | 46% | 1009.4 hPa | 0 mm | - | - | - |
| 1777883001 | 21.11° C | 47% | 1009.5 hPa | 0 mm | - | - | - |
| 1777882701 | 21.11° C | 47% | 1009.4 hPa | 0 mm | - | - | - |
| 1777882401 | 20.56° C | 47% | 1009.5 hPa | 0 mm | - | - | - |
| 1777882100 | 20.56° C | 47% | 1009.6 hPa | 0 mm | - | - | - |
| 1777881800 | 20.56° C | 47% | 1009.6 hPa | 0 mm | - | - | - |
| 1777881500 | 20.56° C | 47% | 1009.5 hPa | 0 mm | - | - | - |
| 1777881199 | 21.11° C | 47% | 1009.5 hPa | 0 mm | - | - | - |
| 1777880899 | 20.56° C | 47% | 1009.4 hPa | 0 mm | - | - | - |
| 1777880599 | 20.56° C | 47% | 1009.3 hPa | 0 mm | - | - | - |
| 1777880299 | 20.56° C | 46% | 1009.2 hPa | 0 mm | - | - | - |
| 1777879998 | 20.56° C | 47% | 1009.2 hPa | 0 mm | - | - | - |
| 1777879698 | 20.56° C | 46% | 1009.3 hPa | 0 mm | - | - | - |
| 1777879398 | 21.11° C | 46% | 1009.2 hPa | 0 mm | - | - | - |
| 1777879097 | 21.11° C | 46% | 1009.2 hPa | 0 mm | - | - | - |
| 1777878797 | 21.11° C | 47% | 1009.2 hPa | 0 mm | - | - | - |
| 1777878497 | 20.56° C | 47% | 1009.1 hPa | 0 mm | - | - | - |
| 1777878197 | 20.56° C | 47% | 1009 hPa | 0 mm | - | - | - |
| 1777877896 | 20.56° C | 47% | 1009.1 hPa | 0 mm | - | - | - |
| 1777877596 | 20.56° C | 50% | 1009 hPa | 0 mm | - | - | - |
| 1777877296 | 20° C | 51% | 1009.2 hPa | 0 mm | - | - | - |
| 1777876995 | 19.44° C | 53% | 1009.2 hPa | 0 mm | - | - | - |
| 1777876695 | 18.89° C | 55% | 1009 hPa | 0 mm | - | - | - |
* Rain latest hour (hover to see other rain measurements)
** Current wind speed in m/s (hover to see current wind gust speed)